This is the latest recevied weather packets stored in our database for station/object LU2DKV-10. If no packets are shown the sender has not sent any weather packets the latest 10 day(s).
| Time | Temp. | Humidity | Pressure | Rain* | Wind** | Luminosity | Snow |
|---|---|---|---|---|---|---|---|
| 1777659022 | 22.22° C | 64% | 1008 hPa | - | - | 0 W/m² | - |
| 1777657200 | 21.67° C | 64% | 1008 hPa | - | - | 0 W/m² | - |
| 1777655378 | 21.67° C | 65% | 1008 hPa | - | - | 0 W/m² | - |
| 1777653556 | 21.67° C | 64% | 1009 hPa | - | - | 0 W/m² | - |
| 1777651734 | 21.11° C | 64% | 1009 hPa | - | - | 0 W/m² | - |
| 1777649912 | 20.56° C | 66% | 1009 hPa | - | - | 0 W/m² | - |
| 1777648090 | 20° C | 67% | 1010 hPa | - | - | 0 W/m² | - |
| 1777646269 | 20° C | 67% | 1010 hPa | - | - | 0 W/m² | - |
| 1777644446 | 18.89° C | 70% | 1010 hPa | - | - | 0 W/m² | - |
| 1777642624 | 18.89° C | 71% | 1010 hPa | - | - | 0 W/m² | - |
| 1777640802 | 18.89° C | 70% | 1010 hPa | - | - | 0 W/m² | - |
| 1777638980 | 18.33° C | 71% | 1010 hPa | - | - | 0 W/m² | - |
| 1777637158 | 17.78° C | 77% | 1010 hPa | - | - | 0 W/m² | - |
| 1777635336 | 17.22° C | 84% | 1010 hPa | - | - | 0 W/m² | - |
| 1777633514 | 16.67° C | 84% | 1010 hPa | - | - | 0 W/m² | - |
| 1777631692 | 16.67° C | 83% | 1010 hPa | - | - | 0 W/m² | - |
| 1777629870 | 16.67° C | 85% | 1010 hPa | - | - | 0 W/m² | - |
| 1777628048 | 16.67° C | 88% | 1010 hPa | - | - | 0 W/m² | - |
| 1777626226 | 16.11° C | 90% | 1010 hPa | - | - | 0 W/m² | - |
| 1777624404 | 16.11° C | 91% | 1011 hPa | - | - | 0 W/m² | - |
| 1777622582 | 16.11° C | 92% | 1011 hPa | - | - | 0 W/m² | - |
| 1777620760 | 16.11° C | 93% | 1011 hPa | - | - | 0 W/m² | - |
| 1777618938 | 16.11° C | 95% | 1011 hPa | - | - | 0 W/m² | - |
| 1777618256 | 16.11° C | 95% | 1011 hPa | - | - | 0 W/m² | - |
| 1777616433 | 16.11° C | 94% | 1011 hPa | - | - | 0 W/m² | - |
* Rain since midnight (hover to see other rain measurements)
** Current wind speed in m/s (hover to see current wind gust speed)